Weather History for Wallops Island, VA

Change the Weather History Date:

Thursday, October 27, 2011

  Actual Average Record
Temperature  
Mean Temperature 63 °F 56 °F  
Max Temperature 76 °F 65 °F 79 °F (1984)
Min Temperature 50 °F 47 °F 33 °F (1990)
Degree Days  
Heating Degree Days 2    
Month to date heating degree days 118  
Since 1 July heating degree days 133  
Cooling Degree Days 0    
Month to date cooling degree days 23  
Year to date cooling degree days 1685  
Growing Degree Days 14 (Base 50)    
Moisture  
Dew Point 52 °F    
Average Humidity 58    
Maximum Humidity 73    
Minimum Humidity 43    
Precipitation  
Precipitation T in 0.11 in 0.89 in (2010)
Month to date precipitation 0.98 2.73  
Year to date precipitation 30.20 34.10  
Sea Level Pressure  
Sea Level Pressure 29.74 in    
Wind  
Wind Speed 13 mph (West)    
Max Wind Speed 25 mph    
Max Gust Speed 37 mph    
Visibility 10 miles    
Events Rain    
T = Trace of Precipitation, MM = Missing Value Source: NWS Daily Summary

Daily Weather History Graph

Daily Weather History Graph

Search for Another Location

Airport:

Trip Planner

Search our weather history database for the weather conditions in past years. The results will help you decide how hot, cold, wet, or windy it might be!

Date:

Astronomy

Oct. 27, 2011 Rise Set
Actual Time 7:21 AM EDT 6:08 PM EDT
Civil Twilight 6:54 AM EDT 6:35 PM EDT
Nautical Twilight 6:24 AM EDT 7:06 PM EDT
Astronomical Twilight 5:53 AM EDT 7:37 PM EDT
Moon 8:20 AM EDT (10/27) 6:38 PM EDT (10/27)
Length of Visible Light 11h 40m
Length of Day
10h 46m
New Moon, 1% of the Moon is Illuminated
Oct 27
New Moon
Nov 2
First Quarter
Nov 10
Full
Nov 18
Last Quarter
Nov 25
New

Hourly Weather History & Observations

Time (EDT) Temp. Dew Point Humidity Pressure Visibility Wind Dir Wind Speed Gust Speed Precip Events Conditions
12:54 AM 68.0 °F 52.0 °F 56% 29.79 in 10.0 mi West 10.4 mph - N/A   Mostly Cloudy
1:54 AM 68.0 °F 51.1 °F 55% 29.77 in 10.0 mi West 12.7 mph 21.9 mph N/A   Scattered Clouds
2:54 AM 66.9 °F 51.1 °F 57% 29.77 in 10.0 mi West 8.1 mph - N/A   Partly Cloudy
3:54 AM 64.0 °F 52.0 °F 65% 29.75 in 10.0 mi WSW 8.1 mph - N/A   Clear
4:54 AM 64.0 °F 51.1 °F 63% 29.74 in 10.0 mi WSW 6.9 mph - N/A   Clear
5:54 AM 64.0 °F 51.1 °F 63% 29.73 in 10.0 mi West 10.4 mph - N/A   Clear
6:54 AM 63.0 °F 51.1 °F 65% 29.73 in 10.0 mi West 6.9 mph - N/A   Clear
7:54 AM 63.0 °F 51.1 °F 65% 29.73 in 10.0 mi West 9.2 mph - N/A   Overcast
8:54 AM 64.9 °F 52.0 °F 63% 29.73 in 10.0 mi WSW 11.5 mph - N/A   Overcast
9:54 AM 68.0 °F 52.0 °F 56% 29.73 in 10.0 mi West 11.5 mph 23.0 mph N/A   Overcast
10:54 AM 68.0 °F 52.0 °F 56% 29.71 in 10.0 mi WNW 12.7 mph 20.7 mph N/A   Overcast
11:54 AM 69.1 °F 53.1 °F 57% 29.70 in 10.0 mi West 12.7 mph 19.6 mph N/A   Mostly Cloudy
12:54 PM 70.0 °F 53.1 °F 55% 29.67 in 10.0 mi West 10.4 mph - N/A   Scattered Clouds
1:54 PM 73.4 °F 53.6 °F 50% 29.66 in 10.0 mi West 15.0 mph 21.9 mph N/A   Scattered Clouds
2:54 PM 75.0 °F 52.0 °F 44% 29.63 in 10.0 mi West 16.1 mph 24.2 mph N/A   Scattered Clouds
3:54 PM 75.9 °F 53.1 °F 45% 29.62 in 10.0 mi WSW 12.7 mph 23.0 mph N/A   Scattered Clouds
4:54 PM 73.0 °F 54.0 °F 51% 29.62 in 10.0 mi WSW 10.4 mph - N/A   Clear
5:54 PM 72.0 °F 54.0 °F 53% 29.64 in 10.0 mi WSW 9.2 mph - N/A   Clear
6:54 PM 72.0 °F 55.0 °F 55% 29.65 in 10.0 mi WSW 12.7 mph - N/A   Partly Cloudy
7:54 PM 73.9 °F 54.0 °F 50% 29.67 in 10.0 mi WSW 17.3 mph 25.3 mph N/A   Overcast
8:47 PM 66.2 °F 57.2 °F 73% 29.76 in 10.0 mi NNW 20.7 mph 34.5 mph 0.00 in Rain Light Rain
8:54 PM 66.0 °F 57.0 °F 73% 29.76 in 10.0 mi North 24.2 mph 36.8 mph 0.00 in   Overcast
9:02 PM 64.4 °F 53.6 °F 68% 29.79 in 10.0 mi North 19.6 mph 36.8 mph N/A   Overcast
9:24 PM 62.6 °F 50.0 °F 63% 29.82 in 10.0 mi North 16.1 mph 27.6 mph N/A   Overcast
9:54 PM 57.9 °F 45.0 °F 62% 29.85 in 10.0 mi North 20.7 mph 29.9 mph N/A   Overcast
10:54 PM 54.0 °F 43.0 °F 66% 29.90 in 10.0 mi North 16.1 mph 28.8 mph N/A   Overcast
11:54 PM 51.1 °F 41.0 °F 68% 29.94 in 10.0 mi North 13.8 mph 28.8 mph N/A   Overcast